www.pogodaiklimat.ru

Погода и климат >> Архив погоды >> Канада >> Нунавут >> Кембридж Бэй


ПОГОДА в Кембридж Бэй

  • Прогноз погоды в Кембридж Бэй
  • Монитор погоды в Кембридж Бэй

АРХИВ ПОГОДЫ в Кембридж Бэй

Время (UTC), дата Ветер
(напр.,м/с)
 
Видим.   Явления Облачность Т
(С)
Тd
(С)
f
(%)
Тe
(С)
Тes
(С)
Комфортность P
(гПа)
Po
(гПа)
Тmin
(С)
Tmax
(С)
R
(мм)
R24
(мм)
S
(см)
18 14.05 В 6 24 км 10/10 300 м
[Sc]
-2.3 -6.0 76 -9 -9 1026.5 1022.4 -3.6 -2.3
21 14.05 СВ 6 19 км 10/10 300 м
[]
-2.1 -4.7 82 -9 -9 1027.4 1023.3
00 15.05 СВ 6 24 км 10/10 300 м
[Sc]
-2.2 -4.1 87 -9 -9 1028.0 1023.9 -3.6 -1.8
03 15.05 СВ 6 24 км 10/10 300 м
[]
-2.8 -5.2 84 -10 -10 1028.2 1024.1
06 15.05 С 4 24 км 10/10 300 м
[Sc]
-3.1 -5.3 85 -9 -9 1028.4 1024.3 -3.7 -1.8 110
09 15.05 С 5 24 км 10/10 600 м
[]
-2.9 -4.8 87 -10 -10 1028.7 1024.6
12 15.05 С 5 12 км 10/10 50 м
[St]
-2.9 -3.8 93 -10 -10 1029.7 1025.6 -3.7 -1.8 50
15 15.05 С 6 12 км 10/10 100 м
[]
-1.9 -3.0 92 -9 -9 1030.4 1026.3
18 15.05 С 7 24 км 10/10 200 м
[St]
-0.8 -3.1 84 -8 -8 1030.2 1026.1 -3.7 -0.8
21 15.05 С 6 24 км 9/9 200 м
[]
-0.6 -3.1 83 -7 -7 1030.3 1026.2
00 16.05 С 5 24 км осадки на расстоянии {ливн. осадки} 9/9 200 м
[Cu Sc]
-1.1 -4.6 77 -7 -7 1030.7 1026.6 -3.2 -0.2 0.0 50
03 16.05 С 8 24 км 9/9 200 м
[]
-5.3 -7.2 86 -14 -14 1030.4 1026.3
06 16.05 С 6 24 км 3/3 100 м
[Cu Sc]
-10.4 -12.2 87 -19 -19 1030.3 1026.2 -10.4 -0.2 41
09 16.05 С 6 19 км 3/3 100 м
[]
-11.1 -12.9 87 -20 -20 1030.6 1026.5
12 16.05 С 6 24 км 3/3 100 м
[Sc]
-11.7 -13.7 85 -20 -20 1030.9 1026.8 -12.2 -0.2 50
15 16.05 С 4 24 км 4/4 100 м
[]
-10.1 -12.5 83 -17 -14 1031.3 1027.1
18 16.05 С 3 4800 м дымка 10/10 100 м
[St]
-6.8 -8.5 88 -13 -13 1031.5 1027.3 -12.4 -6.8
21 16.05 С 3 12 км 10/10 300 м
[]
-3.9 -6.5 82 -9 -9 1030.8 1026.6
00 17.05 С 3 19 км слаб. переохл. морось (гололёд) 9/8 300 м
[Frnb Ci fib]
-3.3 -5.1 87 -8 -8 1031.0 1026.8 -12.4 -3.3 0.0 50
03 17.05 СВ 4 4800 м 9/9 100 м
[]
-5.5 -6.8 91 -12 -12 1030.8 1026.6
06 17.05 СВ 4 19 км осадки на расстоянии {морось} 10/10 100 м
[St]
-6.2 -7.7 89 -13 -13 1031.0 1026.9 -12.4 -3.2 0.0 11
09 17.05 СВ 3 600 м 5/5 50 м
[]
-9.7 -11.1 89 -16 -16 1031.6 1027.4
12 17.05 В 3 3600 м дымка {туман} 10/10 50 м
[St]
-10.1 -11.7 88 -16 -16 1032.2 1028.0 -10.4 -3.2 50
15 17.05 В 3 2400 м 9/9 50 м
[]
-9.4 -11.1 87 -15 -15 1032.3 1028.1
18 17.05 В 4 9000 м слаб. снег 10/10 100 м
[St]
-8.7 -10.3 88 -16 -16 1032.3 1028.1 -10.4 -6.2 0.0 50
21 17.05 ЮВ 4 16 км 10/10 50 м
[]
-8.1 -9.7 88 -15 -15 1032.2 1028.0
00 18.05 ЮВ 5 19 км {снег} 10/10 50 м
[Sc]
-7.9 -9.5 88 -15 -15 1032.2 1028.0 -10.4 -7.7 0.0 50
03 18.05 ЮВ 5 16 км 10/10 50 м
[]
-8.3 -9.8 89 -16 -16 1032.0 1027.8
06 18.05 800 м туман н/о -9.4 -11.0 88 -18 -18 1031.9 1027.7 -10.4 -6.2
09 18.05 ЮВ 6 800 м 8/8 50 м
[]
-9.7 -11.3 88 -18 -18 1032.1 1027.9
12 18.05 800 м туман н/о -9.6 -11.3 87 -19 -19 1032.0 1027.8 -10.3 -6.2
15 18.05 В 8 3600 м 9/9 100 м
[]
-8.8 -10.4 88 -18 -18 1031.4 1027.2
18 18.05 В 8 19 км {снег, туман} 9/5 100 м
[St Ac As]
-7.3 -8.7 90 -17 -16 1031.2 1027.0 -10.3 -7.3 0.0 50
21 18.05 В 7 24 км 5/5 100 м
[]
-6.5 -7.8 90 -15 -14 1031.2 1027.0
00 19.05 В 8 24 км 5/1 200 м
[St Ac As]
-6.1 -7.4 90 -15 -15 1030.4 1026.2 -10.3 -6.1
03 19.05 В 8 24 км 9/9 200 м
[]
-7.0 -8.4 90 -16 -16 1029.3 1025.1
06 19.05 В 7 24 км 5/0 100 м
[Ac As]
-8.2 -9.8 88 -17 -17 1028.7 1024.5 -10.3 -6.0 171
09 19.05 В 6 24 км 4/0 2000 м
[]
-9.3 -11.0 87 -18 -18 1028.9 1024.7
12 19.05 В 8 24 км 9/0
[Ac As]
-8.0 -9.5 89 -17 -17 1027.7 1023.6 -9.4 -6.0 50
15 19.05 В 5 24 км 8/0
[]
-7.5 -9.1 88 -15 -13 1027.3 1023.2
18 19.05 ЮВ 7 24 км 9/0
[Ac As]
-5.3 -7.0 88 -14 -12 1026.6 1022.5 -9.4 -5.2 50
21 19.05 В 6 24 км 9/0 2000 м
[]
-3.5 -5.7 85 -11 -9 1026.0 1021.9
00 20.05 В 6 24 км 9/9 100 м
[Frnb Ac As]
-2.6 -4.5 87 -10 -10 1024.9 1020.8 -9.4 -2.2 50
03 20.05 В 6 24 км 9/9 200 м
[]
-3.3 -4.7 90 -11 -11 1024.4 1020.3
06 20.05 СВ 7 24 км 9/4 100 м
[Sc Ac As]
-4.7 -6.2 89 -13 -13 1024.8 1020.7 -9.4 -2.0 141
09 20.05 СВ 9 11 км 9/9 100 м
[]
-7.1 -8.6 89 -17 -17 1024.8 1020.7
12 20.05 СВ 8 16 км 9/5 100 м
[St Ac trans]
-9.9 -12.0 85 -19 -19 1025.5 1021.4 -9.9 -2.0 50
15 20.05 СВ 10 6000 м 4/4 50 м
[]
-8.8 -11.2 83 -19 -19 1026.1 1022.0
18 20.05 СВ 10 9000 м {снег} 10/10 50 м
[Sc]
-7.6 -10.5 80 -18 -18 1026.5 1022.4 -10.0 -4.7 0.0 50
21 20.05 СВ 8 4800 м 10/10 50 м
[]
-9.0 -12.0 79 -19 -19 1027.9 1023.7
00 21.05 СВ 8 8000 м слаб. снег 9/9 50 м
[Sc Ac trans]
-10.6 -13.9 77 -21 -20 1029.2 1025.0 -10.8 -7.1 0.0 50
03 21.05 С 7 12 км 9/9 50 м
[]
-11.2 -14.1 79 -20 -20 1029.8 1025.6
06 21.05 С 4 14 км слаб. снег 9/9 50 м
[Sc]
-11.4 -14.1 80 -18 -18 1030.6 1026.4 -11.4 -4.7 0.0 141
09 21.05 СЗ 4 20 км 6/6 200 м
[]
-16.0 -18.7 80 -24 -24 1031.0 1026.7
12 21.05 СЗ 5 19 км {снег} 9/9 300 м
[Sc]
-10.8 -13.2 82 -19 -19 1030.8 1026.6 -16.5 -4.7 0.0 50
15 21.05 С 5 17 км 9/9 300 м
[]
-8.1 -11.4 77 -15 -15 1031.1 1026.9

 

Местоположение метеостанции Кембридж Бэй (Нунавут, Канада): широта 69.10 долгота -105.10 высота над уровнем моря 27 м.

В архиве по умолчанию представлена погода в Кембридж Бэй за последнюю неделю. Архивные данные за месяц целиком и за предыдущие месяцы, начиная с января 2011 года, Вы можете получить, выбрав интересующий диапазон дат из раскрывающегося списка и нажав кнопку "Ввод!".


*Определитесь, кто Вы:
робот инопланетянин человек

Внимание! Время в таблицах - всемирное. Для получения местного времени необходимо прибавить поправку, которая равна -7 ч.

Смотрите также архив погоды в соседних городах и на ближайших метеорологических станциях:

Погода на Мысе Пил-Вест (Нунавут, Канада) (108 км)
Погода на Острове Хат (Нунавут, Канада) (223 км)
Погода в Джойа Хейвен (Нунавут, Канада) (374 км)
Погода в Куглуктуке (Нунавут, Канада) (432 км)
Погода в Куглуктуке (Северо-Западные территории, Канада) (432 км)
Погода в Люпине (Нунавут, Канада) (452 км)
Погода в Саскатуне (Саскачеван, Канада) (452 км)
Погода в Талойоаке (Нунавут, Канада) (454 км)
Погода на Озере Робертсон (Нунавут, Канада) (460 км)
Погода в Шеперд-Бее (Нунавут, Канада) (466 км)

Пояснения к столбцам:

Ветер - указаны скорость ветра в м/с - средняя за 10 мин, порывы в срок и между сроками (в фигурных скобках) и направление, откуда дует ветер: С - северный, СВ - северо-восточный, В - восточный, ЮВ - юго-восточный, Ю - южный, ЮЗ - юго-западный, З - западный, СЗ - северо-западный.
Видимость - горизонтальная дальность видимости в метрах или километрах. При видимости от 1 до 10 км при отсутствии осадков обычно наблюдается дымка, при ухудшении видимости до 1 км и менее - туман. В сухую погоду видимость может ухудшаться дымом, пылью или мглою.
Явления - указаны атмосферные явления, наблюдавшиеся в срок или в последний час перед сроком; фигурными скобками обозначены явления, наблюдавшиеся между сроками (за 1-3 часа до срока); квадратными скобками обозначены град или гололедные отложения с указанием их диаметра в мм.
Облачность - указаны через наклонную черту общая и нижняя облачность в баллах и высота нижней границы облаков в метрах; квадратными скобками обозначены формы облаков: Ci - перистые, Cs - перисто-слоистые, Cc - перисто-кучевые, Ac - высококучевые, As - высокослоистые, Sc - слоисто-кучевые, Ns - слоисто-дождевые, Cu - кучевые, Cb - кучево-дождевые. Подробнее классификацию облаков см. в Атласе облаков (PDF).
T - Температура воздуха - температура, измеренная на высоте 2 м над землей.
Td - Температура точки росы - температура, при понижении до которой содержащийся в воздухе водяной пар достигнет насыщения.
f - Относительная влажность воздуха - влажноcть воздуха, измеренная на высоте 2 м над землей.
Te - Эффективная температура - температура, которую ощущает одетый по сезону человек в тени. Характеристика душности погоды. При расчете учитывается влияние влажности воздуха и скорости ветра на теплоощущения человека.
Tes - Эффективная температура на солнце - температура, которую ощущает человек, с поправкой на солнечный нагрев. Характеристика знойности погоды. Зависит от высоты солнца над горизонтом, облачности и скорости ветра. Ночью, в пасмурную погоду, а также при ветре 12 м/с и более поправка равна нулю.
P - Атмосферное давление - приведенное к уровню моря атмосферное давление.
Po - Атмосферное давление - измеренное на уровне метеостанции атмосферное давление.
Tmin - Минимальная температура - минимум температуры воздуха на высоте 2 м над землей.
Tmax - Максимальная температура - максимум температуры воздуха на высоте 2 м над землей.
R - Количество осадков - Количество выпавших осадков за период времени, мм. При наведении курсора мыши на число - период времени, за который выпало указанное количество осадков.
R24 - Количество осадков - Количество выпавших осадков за 24 часа, мм.
S - Снежный покров - Высота снежного покрова, см. При наведении курсора мыши на число - состояние снежного покрова и степень покрытия местности в баллах.